COSMOS 1275 DEB, 42112

Orbit data source: Space-Track

COSMOS 1275 DEB, 42112 is space debris in LEO originally from a launch on Thu, 04 Jun 1981 UTC launched from the Plesetsk Missile And Space Complex (PKMTR). Debris objects in space refer to the collection of defunct objects orbiting the Earth. Examples of debris include non-operational satellites, rocket bodies, and fragments generated from explosions, collisions, or faulty payload assembly.

Loading next visibility...
Identifier
42112, 1981-053PY
Orbit
LEO
Country
Flag of CISCIS
Related business
Manufacturer
Unknown
Mission
Spacecraft
Bus & Motor
Unknown
Mass
Unknown
Launch date (UTC)
1981-06-04 (45 years ago)
Launch vehicle
Unknown
Launch site
Plesetsk Missile And Space Complex (PKMTR)
Object type
Payload
Rocket body
Debris
Shape & HBR
Unknown shape, 0.1 m
Radar Cross Section
Small (<0.1 m²)

Expand to show TLE details & history
Last TLE update: 23 hours ago

TLE from 23 hours ago
0 COSMOS 1275 DEB
1 42112U 81053PY  26131.42211282  .00003669  00000-0  87952-3 0  9990
2 42112  82.8448 190.1498 0016171 146.3549 213.8681 14.53218139637233
Epoch: 2026-05-11T10:07Z
TLE epoch observation values (Epoch: 2026-05-11T10:07:50.547Z)
Latitude
0.00001°
Longitude
168.97812°
Altitude
727.695 km
Speed
7.486 km/s
True Right ascension
12h 40m 35s
True Declination
0° 00' 00"
Sunlit
Object was in full shadow at epoch
Visualization orbit readout
Latitude
Unknown
Longitude
Unknown
Altitude
Unknown
Speed
Unknown
Apparent Right ascension
Unknown
Apparent Declination
Unknown
Sunlit
N/A
Visualization observer readout
Local Sidereal Time
17:57:40
Azimuth
Unknown
Elevation
Unknown
Doppler factor
Unknown
Orbital elements
Apogee altitude
723.668 km
Perigee altitude
700.737 km
Semi-major axis
7,090.339 km
Eccentricity
0.00162
Inclination
82.8448°
RAAN
190.1498°
Arg. of periapsis
146.3549°
True anomaly
213.76501°
Mean anomaly
213.8681°
Eccentric anomaly
213.81654°
Mean motion
3.63532 °/min
Orbital period
99.03 mins
BSTAR
0.00087952
Loading maneuver chart data...
Computing Atmospheric mass density...
Loading historical data...
Loading historical data...
Loading historical data...
Loading historical data...
Loading historical data...
Loading historical data...
Loading historical data...

Documentation

Showing up to 5 results
|